Location: ????
(55.2778°N, 39.2433°E)
Time: 06:08:08
(UTC+00:00)

NOSS 2-3 (D) - Pass Details

Date: 14 April 2024
Orbit: 497 x 1701 km, 63.3° (Epoch: 24 April)

Event Time Altitude Azimuth Distance (km) Brightness Sun altitude
Rises 00:22:08 0° 308° (NW) 3,115 7.1 -15.3°
Reaches altitude 10° 00:24:14 10° 305° (NW) 2,325 6.4 -15.1°
Maximum altitude 00:29:30 58° 227° (SW) 1,099 4.5 -14.5°
Drops below altitude 10° 00:36:38 10° 151° (SSE) 3,127 7.0 -13.7°
Sets 00:39:51 0° 148° (SSE) 4,284 7.8 -13.4°
